CZ-4 DEB, 26142

Orbit data source: Space-Track

CZ-4 DEB, 26142 is space debris in SSO originally from a launch on Thu, 14 Oct 1999 UTC launched from the Taiyaun Space Center, China (TSC). Debris objects in space refer to the collection of defunct objects orbiting the Earth. Examples of debris include non-operational satellites, rocket bodies, and fragments generated from explosions, collisions, or faulty payload assembly.

Loading next visibility...
Identifier
26142, 1999-057AE
Orbit
SSO
Country
Flag of CNCN / PRC
Related business
Manufacturer
Unknown
Mission
Spacecraft
Bus & Motor
Unknown
Mass
Unknown
Launch date (UTC)
1999-10-14 (27 years ago)
Launch vehicle
Unknown
Launch site
Taiyaun Space Center, China (TSC)
Object type
Payload
Rocket body
Debris
Shape & HBR
Unknown shape, 0.1 m
Radar Cross Section
Small (<0.1 m²)

Expand to show TLE details & history
Last TLE update: 7 hours ago

TLE from 7 hours ago
0 CZ-4 DEB
1 26142U 99057AE  26126.62316935  .00000498  00000-0  32156-3 0  9998
2 26142  98.7340  10.9607 0295672 252.1614 134.9196 13.87838206318655
Epoch: 2026-05-06T14:57Z
TLE epoch observation values (Epoch: 2026-05-06T14:57:21.831Z)
Latitude
29.08966°
Longitude
-82.7394°
Altitude
1,095.63 km
Speed
7.229 km/s
True Right ascension
00h 24m 19s
True Declination
28° 57' 01"
Sunlit
Object was in daylight at epoch
Visualization orbit readout
Latitude
Unknown
Longitude
Unknown
Altitude
Unknown
Speed
Unknown
Apparent Right ascension
Unknown
Apparent Declination
Unknown
Sunlit
N/A
Visualization observer readout
Local Sidereal Time
06:04:29
Azimuth
Unknown
Elevation
Unknown
Doppler factor
Unknown
Orbital elements
Apogee altitude
1,149.598 km
Perigee altitude
717.234 km
Semi-major axis
7,311.553 km
Eccentricity
0.02957
Inclination
98.734°
RAAN
10.9607°
Arg. of periapsis
252.1614°
True anomaly
137.25702°
Mean anomaly
134.9196°
Eccentric anomaly
136.09439°
Mean motion
3.47159 °/min
Orbital period
103.7 mins
BSTAR
0.00032156
Loading maneuver chart data...
Computing Atmospheric mass density...
Loading historical data...
Loading historical data...
Loading historical data...
Loading historical data...
Loading historical data...
Loading historical data...
Loading historical data...

Documentation

Showing up to 5 results
|